Home   Weather   Tianjin   Past weeks

Flag for China Past Weather in Tianjin, Tianjin Municipality, China — Yesterday and Last 2 Weeks

Now
75 °F

Clear.


Feels Like: 77 °F
Forecast: 62 / 92 °F
Wind: 6 mph from Southwest

Location: Tianjin / Zhangguizhu

Current Time: May 23, 2017 at 8:36:26 pm

Latest Report: May 23, 2017 at 8:00 pm


Visibility: 10 mi

Pressure: 29.86 "Hg

Humidity: 27%

Dew Point: 39 °F

Location of TianjinLocation

Past Weather in Tianjin — Graph

°F

Tianjin Temperature Yesterday

Maximum temperature yesterday: 70 °F (at 12:00 am)
Minimum temperature yesterday: 59 °F (at 12:30 pm)
Average temperature yesterday: 63 °F

High & Low Weather Summary for the Past Weeks

 TemperatureHumidityPressure
High99 °F (May 19, 3:30 pm)94% (May 22, 3:30 am)30.04 "Hg (May 22, 3:30 am)
Low57 °F (May 12, 3:00 am)8% (May 11, 5:00 pm)29.45 "Hg (May 12, 5:30 pm)
Average75 °F42%29.79 "Hg
* Reported May 8 7:00 pm — May 23 7:00 pm, Tianjin. Weather by CustomWeather, © 2017

Note: Actual official high and low records may vary slightly from our data, if they occured in-between our weather recording intervals... More about our weather records

Advertising

Tianjin Weather History for the Previous 24 Hours

Scroll right to see more
 ConditionsComfort  
Time TempWeatherWind HumidityBarometerVisibility
7:00 pm
Tue, May 23
77 °FSunny.8 mph24%29.86 "Hg10 mi
6:30 pm81 °FPassing clouds.3 mph17%29.86 "HgN/A
6:00 pm81 °FSunny.3 mph17%29.86 "Hg10 mi
5:30 pm82 °FPassing clouds.3 mph16%29.86 "HgN/A
5:00 pm82 °FSunny.1 mph16%29.86 "Hg10 mi
4:30 pm82 °FPassing clouds.6 mph16%29.89 "HgN/A
4:00 pm82 °FSunny.3 mph16%29.89 "Hg10 mi
3:30 pm81 °FPassing clouds.3 mph15%29.89 "HgN/A
3:00 pm81 °FPassing clouds.6 mph18%29.92 "HgN/A
2:30 pm79 °FPassing clouds.6 mph15%29.92 "HgN/A
2:00 pm79 °FSunny.6 mph18%29.95 "Hg10 mi
1:30 pm79 °FSunny.8 mph18%29.95 "Hg10 mi
1:00 pm77 °FPassing clouds.8 mph19%29.95 "HgN/A
12:30 pm77 °FPassing clouds.8 mph17%29.98 "HgN/A
12:00 pm75 °FPassing clouds.6 mph21%29.98 "HgN/A
11:30 am73 °FPassing clouds.6 mph23%29.98 "HgN/A
11:00 am73 °FPassing clouds.8 mph29%30.01 "HgN/A
10:30 am72 °FPassing clouds.6 mph36%30.01 "HgN/A
10:00 am72 °FPassing clouds.6 mph36%30.01 "HgN/A
9:00 am68 °FPassing clouds.8 mph60%30.01 "HgN/A
8:30 am66 °FPassing clouds.3 mph64%30.01 "HgN/A
8:00 am64 °FPassing clouds.6 mph68%30.01 "HgN/A
7:30 am64 °FPassing clouds.6 mph73%30.01 "HgN/A
7:00 am63 °FClear.6 mph83%30.01 "Hg5 mi
6:30 am61 °FFog.3 mph88%30.01 "Hg3 mi
6:00 am59 °FFog.3 mph94%30.01 "Hg3 mi
5:30 am57 °FFog.3 mph94%30.01 "Hg3 mi
5:00 am57 °FFog.3 mph88%30.01 "Hg3 mi
4:30 am57 °FFog.3 mph88%30.01 "Hg3 mi
4:00 am57 °FClear.3 mph88%30.01 "Hg4 mi
3:30 am57 °FClear.3 mph94%30.01 "Hg4 mi
3:00 am59 °FClear.3 mph88%30.01 "Hg4 mi
2:30 am59 °FClear.3 mph88%30.01 "Hg4 mi
2:00 am61 °FClear.3 mph83%30.01 "Hg5 mi
1:30 am59 °FClear.1 mph88%30.01 "Hg10 mi
1:00 am59 °FClear.1 mph88%30.01 "Hg10 mi
12:30 am59 °FClear.1 mph88%30.01 "Hg10 mi
12:00 am59 °FPassing clouds.3 mph88%30.01 "HgN/A
11:30 pm
Mon, May 22
59 °FPassing clouds.3 mph88%30.01 "HgN/A
11:00 pm59 °FPassing clouds.3 mph88%30.01 "HgN/A
10:30 pm59 °FPassing clouds.3 mph88%30.01 "HgN/A
10:00 pm59 °FClear.3 mph88%30.01 "Hg10 mi
9:30 pm59 °FLight rain. Passing clouds.6 mph88%29.98 "HgN/A
9:00 pm59 °FLight rain. Passing clouds.3 mph88%29.98 "HgN/A
8:30 pm59 °FLight rain. Passing clouds.6 mph88%29.98 "Hg5 mi
8:00 pm59 °FLight rain. Passing clouds.6 mph88%29.95 "Hg5 mi
Weather by CustomWeather, © 2017

See weather overviewHow to use our weather pages